Weather History for Dublin, VA

Change the Weather History Date:

Saturday, April 13, 2013

  Actual Average (KBCB) Record (KBCB)
Temperature  
Mean Temperature 58 °F 50 °F  
Max Temperature 69 °F 63 °F 80 °F (1977)
Min Temperature 48 °F 38 °F 20 °F (1975)
Degree Days  
Heating Degree Days 6 15  
Month to date heating degree days 219  
Since 1 July heating degree days 4994  
Cooling Degree Days 0 0  
Month to date cooling degree days 0  
Year to date cooling degree days 0  
Growing Degree Days 8 (Base 50)    
Moisture  
Dew Point 33 °F    
Average Humidity 45    
Maximum Humidity 66    
Minimum Humidity 21    
Precipitation  
Precipitation 0.00 in 0.11 in 1.01 in (1959)
Month to date precipitation 1.52  
Year to date precipitation 11.05  
Snow  
Snow 0.00 in - - ()
Month to date snowfall  
Since 1 July snowfall  
Snow Depth -    
Sea Level Pressure  
Sea Level Pressure 29.96 in    
Wind  
Wind Speed 10 mph (West)    
Max Wind Speed 18 mph    
Max Gust Speed 29 mph    
Visibility 10 miles    
Events      
T = Trace of Precipitation, MM = Missing Value Source: NWS Daily Summary

Daily Weather History Graph

Daily Weather History Graph

Search for Another Location

Airport:

Trip Planner

Search our weather history database for the weather conditions in past years. The results will help you decide how hot, cold, wet, or windy it might be!

Date:

Astronomy

Apr. 13, 2013 Rise Set
Actual Time 6:50 AM EDT 7:56 PM EDT
Civil Twilight 6:24 AM EDT 8:22 PM EDT
Nautical Twilight 5:52 AM EDT 8:54 PM EDT
Astronomical Twilight 5:19 AM EDT 9:27 PM EDT
Moon 8:44 AM EDT (4/13) 11:14 PM EDT (4/13)
Length of Visible Light 13h 58m
Length of Day
13h 05m
Waxing Crescent, 10% of the Moon is Illuminated
Apr 13
Waxing Crescent
Apr 18
First Quarter
Apr 25
Full
May 2
Last Quarter
May 9
New

Hourly Weather History & Observations

Time (EDT) Temp. Dew Point Humidity Pressure Visibility Wind Dir Wind Speed Gust Speed Precip Events Conditions
12:15 AM 51.8 °F 33.8 °F 50% 29.91 in 10.0 mi WNW 11.5 mph - N/A   Clear
12:35 AM 51.8 °F 33.8 °F 50% 29.91 in 10.0 mi WNW 11.5 mph 20.7 mph N/A   Clear
12:55 AM 51.8 °F 33.8 °F 50% 29.91 in 10.0 mi WNW 12.7 mph - N/A   Clear
1:15 AM 51.8 °F 33.8 °F 50% 29.91 in 10.0 mi WNW 12.7 mph - N/A   Clear
1:35 AM 50.0 °F 33.8 °F 54% 29.90 in 10.0 mi WNW 9.2 mph - N/A   Clear
1:55 AM 50.0 °F 33.8 °F 54% 29.91 in 10.0 mi WNW 12.7 mph 17.3 mph N/A   Clear
2:15 AM 51.8 °F 33.8 °F 50% 29.90 in 10.0 mi WNW 11.5 mph 16.1 mph N/A   Clear
2:35 AM 48.2 °F 33.8 °F 58% 29.90 in 10.0 mi West 9.2 mph 16.1 mph N/A   Clear
2:55 AM 48.2 °F 35.6 °F 62% 29.91 in 10.0 mi WSW 9.2 mph - N/A   Clear
3:15 AM 48.2 °F 35.6 °F 62% 29.90 in 10.0 mi West 8.1 mph - N/A   Clear
3:35 AM 48.2 °F 35.6 °F 62% 29.90 in 10.0 mi West 4.6 mph - N/A   Clear
3:55 AM 48.2 °F 35.6 °F 62% 29.90 in 10.0 mi West 9.2 mph - N/A   Clear
4:15 AM 48.2 °F 35.6 °F 62% 29.90 in 10.0 mi West 10.4 mph 16.1 mph N/A   Clear
4:35 AM 48.2 °F 35.6 °F 62% 29.91 in 10.0 mi West 11.5 mph - N/A   Clear
4:55 AM 48.2 °F 35.6 °F 62% 29.91 in 10.0 mi WNW 6.9 mph - N/A   Clear
5:15 AM 48.2 °F 35.6 °F 62% 29.92 in 10.0 mi WNW 8.1 mph - N/A   Clear
5:35 AM 48.2 °F 35.6 °F 62% 29.92 in 10.0 mi West 4.6 mph - N/A   Scattered Clouds
5:55 AM 48.2 °F 35.6 °F 62% 29.92 in 10.0 mi West 6.9 mph 28.8 mph N/A   Mostly Cloudy
6:15 AM 48.2 °F 37.4 °F 66% 29.92 in 10.0 mi WNW 6.9 mph - N/A   Overcast
6:35 AM 48.2 °F 37.4 °F 66% 29.93 in 10.0 mi West 9.2 mph - N/A   Overcast
6:55 AM 48.2 °F 37.4 °F 66% 29.94 in 10.0 mi West 6.9 mph 16.1 mph N/A   Overcast
7:15 AM 48.2 °F 37.4 °F 66% 29.95 in 10.0 mi West 3.5 mph 11.5 mph N/A   Overcast
7:35 AM 48.2 °F 37.4 °F 66% 29.96 in 10.0 mi West 3.5 mph - N/A   Overcast
7:55 AM 50.0 °F 37.4 °F 62% 29.97 in 10.0 mi WNW 10.4 mph - N/A   Overcast
8:15 AM 51.8 °F 37.4 °F 58% 29.97 in 10.0 mi West 6.9 mph - N/A   Scattered Clouds
8:35 AM 51.8 °F 37.4 °F 58% 29.98 in 10.0 mi WNW 6.9 mph - N/A   Scattered Clouds
8:55 AM 51.8 °F 37.4 °F 58% 29.98 in 10.0 mi WNW 10.4 mph - N/A   Scattered Clouds
9:15 AM 53.6 °F 39.2 °F 58% 29.99 in 10.0 mi West 9.2 mph - N/A   Scattered Clouds
9:35 AM 53.6 °F 37.4 °F 54% 29.98 in 10.0 mi West 11.5 mph 16.1 mph N/A   Scattered Clouds
9:55 AM 53.6 °F 37.4 °F 54% 29.98 in 10.0 mi West 6.9 mph - N/A   Clear
10:15 AM 55.4 °F 37.4 °F 51% 29.99 in 10.0 mi West 11.5 mph 17.3 mph N/A   Clear
10:35 AM 55.4 °F 37.4 °F 51% 29.99 in 10.0 mi West 9.2 mph - N/A   Clear
10:55 AM 57.2 °F 37.4 °F 48% 30.00 in 10.0 mi West 9.2 mph - N/A   Clear
11:15 AM 57.2 °F 37.4 °F 48% 30.00 in 10.0 mi West 9.2 mph - N/A   Clear
11:35 AM 59.0 °F 37.4 °F 45% 30.00 in 10.0 mi West 8.1 mph - N/A   Clear
11:55 AM 60.8 °F 37.4 °F 42% 30.00 in 10.0 mi West 5.8 mph - N/A   Clear
12:15 PM 60.8 °F 35.6 °F 39% 29.99 in 10.0 mi WSW 12.7 mph 19.6 mph N/A   Clear
12:35 PM 62.6 °F 35.6 °F 37% 30.00 in 10.0 mi West 5.8 mph 9.2 mph N/A   Clear
12:55 PM 62.6 °F 33.8 °F 34% 29.99 in 10.0 mi West 6.9 mph 17.3 mph N/A   Clear
1:15 PM 64.4 °F 35.6 °F 34% 29.98 in 10.0 mi West 6.9 mph - N/A   Clear
1:35 PM 64.4 °F 32.0 °F 30% 29.98 in 10.0 mi WSW 8.1 mph 17.3 mph N/A   Clear
1:55 PM 64.4 °F 32.0 °F 30% 29.97 in 10.0 mi West 6.9 mph - N/A   Clear
2:15 PM 66.2 °F 33.8 °F 30% 29.96 in 10.0 mi WSW 13.8 mph 17.3 mph N/A   Clear
2:35 PM 66.2 °F 32.0 °F 28% 29.96 in 10.0 mi West 10.4 mph - N/A   Clear
2:55 PM 68.0 °F 30.2 °F 24% 29.96 in 10.0 mi West 10.4 mph 20.7 mph N/A   Clear
3:15 PM 68.0 °F 32.0 °F 26% 29.95 in 10.0 mi West 13.8 mph - N/A   Clear
3:35 PM 69.8 °F 33.8 °F 27% 29.94 in 10.0 mi West 11.5 mph - N/A   Clear
3:55 PM 68.0 °F 28.4 °F 23% 29.94 in 10.0 mi WSW 16.1 mph - N/A   Clear
4:15 PM 69.8 °F 28.4 °F 21% 29.94 in 10.0 mi West 11.5 mph 17.3 mph N/A   Clear
4:35 PM 69.8 °F 28.4 °F 21% 29.94 in 10.0 mi West 17.3 mph 24.2 mph N/A   Clear
4:55 PM 68.0 °F 26.6 °F 21% 29.94 in 10.0 mi West 18.4 mph 26.5 mph N/A   Clear
5:15 PM 66.2 °F 26.6 °F 23% 29.94 in 10.0 mi West 15.0 mph 20.7 mph N/A   Clear
5:35 PM 66.2 °F 28.4 °F 24% 29.95 in 10.0 mi WNW 9.2 mph - N/A   Clear
5:55 PM 66.2 °F 26.6 °F 23% 29.95 in 10.0 mi WNW 17.3 mph 23.0 mph N/A   Clear
6:15 PM 66.2 °F 24.8 °F 21% 29.96 in 10.0 mi WNW 17.3 mph 21.9 mph N/A   Clear
6:35 PM 64.4 °F 24.8 °F 22% 29.97 in 10.0 mi WNW 15.0 mph 27.6 mph N/A   Clear
6:55 PM 64.4 °F 24.8 °F 22% 29.98 in 10.0 mi WNW 15.0 mph 26.5 mph N/A   Clear
7:15 PM 64.4 °F 26.6 °F 24% 29.98 in 10.0 mi WNW 11.5 mph - N/A   Clear
7:35 PM 62.6 °F 28.4 °F 27% 29.99 in 10.0 mi West 6.9 mph - N/A   Clear
8:15 PM 57.2 °F 30.2 °F 36% 30.00 in 10.0 mi West 6.9 mph - N/A   Clear
8:35 PM 57.2 °F 30.2 °F 36% 30.01 in 10.0 mi West 5.8 mph - N/A   Clear
8:55 PM 57.2 °F 30.2 °F 36% 30.01 in 10.0 mi West 4.6 mph - N/A   Clear
9:15 PM 55.4 °F 30.2 °F 38% 30.02 in 10.0 mi West 4.6 mph - N/A   Clear
9:35 PM 53.6 °F 32.0 °F 44% 30.03 in 10.0 mi WSW 5.8 mph - N/A   Clear
9:55 PM 53.6 °F 32.0 °F 44% 30.03 in 10.0 mi WSW 6.9 mph - N/A   Clear
10:15 PM 55.4 °F 32.0 °F 41% 30.04 in 10.0 mi West 6.9 mph - N/A   Clear
10:35 PM 53.6 °F 33.8 °F 47% 30.04 in 10.0 mi WSW 6.9 mph - N/A   Clear
10:55 PM 55.4 °F 30.2 °F 38% 30.05 in 10.0 mi WSW 6.9 mph - N/A   Clear
11:15 PM 51.8 °F 33.8 °F 50% 30.05 in 10.0 mi WSW 8.1 mph - N/A   Clear
11:35 PM 51.8 °F 33.8 °F 50% 30.06 in 10.0 mi WSW 8.1 mph - N/A   Clear
11:55 PM 50.0 °F 33.8 °F 54% 30.06 in 10.0 mi WSW 6.9 mph - N/A   Clear